| time (UTC) | temp F | wind direction | speed MPH | gust MPH | rain 1hr in | rain 24hr in | rain mn in | humidity % | barometer mb |
| 20260906101537 | 53 | 90 | 0.0 | 3.0 | 0.03 | 0.04 | 0.04 | 96 | 1018.7 |
| 20260906100038 | 53 | 272 | 1.0 | 4.0 | 0.04 | 0.04 | 0.02 | 96 | 1018.6 |
| 20260906094538 | 53 | 210 | 0.0 | 1.0 | 0.02 | 0.02 | 0.02 | 96 | 1018.7 |
| 20260906093035 | 53 | 202 | 0.0 | 0.0 | 0.02 | 0.02 | 0.01 | 96 | 1018.5 |
| 20260906091538 | 53 | 202 | 0.0 | 0.0 | 0.01 | 0.01 | 0.00 | 95 | 1018.5 |
| 20260906090041 | 53 | 202 | 0.0 | 0.0 | 0.00 | 0.00 | 0.00 | 95 | 1018.5 |
| 20260906081546 | 52 | 180 | 0.0 | 1.0 | 0.00 | 0.00 | 0.00 | 95 | 1018.5 |
| 20260906080038 | 52 | 180 | 0.0 | 2.0 | 0.00 | 0.00 | 0.00 | 95 | 1018.4 |
| 20260906074537 | 52 | 180 | 0.0 | 0.0 | 0.00 | 0.00 | 0.00 | 95 | 1018.3 |
| 20260906073044 | 52 | 180 | 0.0 | 2.0 | 0.00 | 0.00 | 0.00 | 95 | 1018.5 |
| 20260906071548 | 52 | 180 | 0.0 | 2.0 | 0.00 | 0.00 | 0.00 | 95 | 1018.6 |
| 20260906070044 | 52 | 180 | 0.0 | 0.0 | 0.00 | 0.00 | 0.00 | 95 | 1018.7 |
| 20260906064536 | 51 | 180 | 0.0 | 2.0 | 0.00 | 0.00 | 0.00 | 94 | 1018.8 |
| 20260906063037 | 51 | 137 | 0.0 | 3.0 | 0.00 | 0.01 | 0.00 | 94 | 1018.9 |
| 20260906061536 | 52 | 135 | 0.0 | 3.0 | 0.00 | 0.01 | 0.00 | 94 | 1018.8 |
| 20260906060047 | 53 | 135 | 0.0 | 3.0 | 0.00 | 0.02 | 0.00 | 94 | 1018.9 |
| 20260906054537 | 53 | 153 | 0.0 | 2.0 | 0.00 | 0.02 | 0.00 | 94 | 1019.0 |
| 20260906051536 | 53 | 240 | 0.0 | 3.0 | 0.00 | 0.02 | 0.00 | 93 | 1019.0 |
| 20260906050040 | 53 | 144 | 0.0 | 2.0 | 0.00 | 0.02 | 0.00 | 93 | 1019.0 |
| 20260906044540 | 53 | 135 | 0.0 | 0.0 | 0.00 | 0.02 | 0.00 | 93 | 1019.1 |
| 20260906043036 | 54 | 135 | 0.0 | 0.0 | 0.00 | 0.02 | 0.00 | 92 | 1019.0 |
| 20260906041541 | 54 | 135 | 0.0 | 0.0 | 0.00 | 0.02 | 0.00 | 92 | 1019.0 |
| 20260906040034 | 54 | 138 | 0.0 | 3.0 | 0.00 | 0.02 | 0.00 | 91 | 1018.9 |
| 20260906034536 | 54 | 210 | 0.0 | 1.0 | 0.00 | 0.02 | 0.00 | 90 | 1018.7 |
| 20260906033045 | 55 | 157 | 0.0 | 0.0 | 0.00 | 0.02 | 0.00 | 89 | 1018.5 |
| 20260906030045 | 57 | 180 | 0.0 | 2.0 | 0.00 | 0.02 | 0.00 | 87 | 1018.2 |
| 20260906024538 | 60 | 180 | 1.0 | 3.0 | 0.00 | 0.02 | 0.00 | 84 | 1018.0 |
| 20260906021541 | 61 | 180 | 1.0 | 3.0 | 0.00 | 0.02 | 0.00 | 82 | 1018.0 |
| 20260906020038 | 64 | 165 | 0.0 | 4.0 | 0.00 | 0.02 | 0.00 | 78 | 1017.8 |
| 20260906014535 | 66 | 157 | 0.0 | 0.0 | 0.00 | 0.02 | 0.00 | 75 | 1017.9 |
| 20260906013035 | 67 | 156 | 0.0 | 4.0 | 0.00 | 0.02 | 0.00 | 72 | 1017.9 |
| 20260906010036 | 68 | 152 | 1.0 | 4.0 | 0.00 | 0.02 | 0.00 | 70 | 1018.0 |
| 20260906003041 | 65 | 214 | 2.0 | 5.0 | 0.00 | 0.02 | 0.00 | 79 | 1018.4 |
| 20260906001535 | 62 | 168 | 4.0 | 6.0 | 0.00 | 0.02 | 0.00 | 82 | 1018.7 |
| 20260906000036 | 62 | 177 | 5.0 | 10.0 | 0.00 | 0.02 | 0.00 | 80 | 1018.7 |
| 20260905234538 | 62 | 195 | 5.0 | 8.0 | 0.00 | 0.02 | 0.00 | 78 | 1018.6 |
| 20260905233114 | 65 | 189 | 3.0 | 7.0 | 0.00 | 0.02 | 0.00 | 74 | 1018.3 |
| 20260905231539 | 66 | 293 | 1.0 | 7.0 | 0.00 | 0.02 | 0.00 | 73 | 1018.3 |
| 20260905230037 | 66 | 315 | 0.0 | 0.0 | 0.00 | 0.02 | 0.00 | 72 | 1018.3 |
| 20260905224539 | 66 | 315 | 0.0 | 0.0 | 0.00 | 0.02 | 0.00 | 71 | 1018.2 |
| 20260905223123 | 67 | 315 | 0.0 | 0.0 | 0.00 | 0.02 | 0.00 | 67 | 1018.1 |
| 20260905221533 | 69 | 315 | 0.0 | 3.0 | 0.00 | 0.02 | 0.00 | 59 | 1018.1 |
| 20260905220037 | 69 | 334 | 0.0 | 5.0 | 0.00 | 0.02 | 0.00 | 63 | 1018.2 |
| 20260905214536 | 67 | 202 | 0.0 | 0.0 | 0.00 | 0.02 | 0.00 | 66 | 1018.3 |
| 20260905213034 | 67 | 177 | 0.0 | 4.0 | 0.00 | 0.02 | 0.00 | 68 | 1018.5 |
| 20260905211533 | 67 | 201 | 0.0 | 0.0 | 0.00 | 0.02 | 0.00 | 68 | 1018.6 |
| 20260905210038 | 67 | 199 | 0.0 | 4.0 | 0.00 | 0.02 | 0.00 | 68 | 1018.7 |
| 20260905204533 | 67 | 189 | 1.0 | 4.0 | 0.00 | 0.02 | 0.00 | 67 | 1018.7 |
| 20260905203036 | 67 | 173 | 0.0 | 2.0 | 0.00 | 0.02 | 0.00 | 66 | 1018.7 |
| 20260905201536 | 67 | 331 | 1.0 | 5.0 | 0.00 | 0.02 | 0.00 | 66 | 1018.8 |
| 20260905194540 | 64 | 280 | 2.0 | 5.0 | 0.00 | 0.02 | 0.00 | 71 | 1019.1 |
| 20260905193040 | 64 | 310 | 0.0 | 4.0 | 0.00 | 0.02 | 0.00 | 72 | 1019.1 |
| 20260905190038 | 62 | 344 | 2.0 | 5.0 | 0.00 | 0.02 | 0.00 | 77 | 1019.6 |
| 20260905184540 | 61 | 326 | 1.0 | 5.0 | 0.00 | 0.02 | 0.00 | 80 | 1019.9 |
| 20260905183038 | 61 | 317 | 1.0 | 5.0 | 0.00 | 0.02 | 0.00 | 82 | 1020.0 |
| 20260905181537 | 60 | 276 | 2.0 | 4.0 | 0.00 | 0.02 | 0.00 | 89 | 1020.3 |
| 20260905174535 | 57 | 112 | 0.0 | 0.0 | 0.00 | 0.02 | 0.00 | 94 | 1020.5 |
| 20260905173038 | 56 | 112 | 0.0 | 0.0 | 0.00 | 0.02 | 0.00 | 95 | 1020.5 |
| 20260905170038 | 55 | 135 | 0.0 | 2.0 | 0.00 | 0.02 | 0.00 | 97 | 1020.5 |
| 20260905163036 | 54 | 135 | 0.0 | 2.0 | 0.00 | 0.02 | 0.00 | 97 | 1020.5 |
| 20260905161535 | 54 | 135 | 0.0 | 2.0 | 0.00 | 0.02 | 0.00 | 97 | 1020.4 |
| 20260905160035 | 53 | 135 | 0.0 | 3.0 | 0.00 | 0.02 | 0.00 | 97 | 1020.5 |
| 20260905154537 | 53 | 135 | 0.0 | 2.0 | 0.00 | 0.02 | 0.00 | 97 | 1020.5 |
| 20260905153037 | 52 | 135 | 0.0 | 0.0 | 0.00 | 0.02 | 0.00 | 97 | 1020.5 |
| 20260905151540 | 52 | 135 | 0.0 | 0.0 | 0.00 | 0.02 | 0.00 | 97 | 1020.5 |
| 20260905150037 | 52 | 135 | 0.0 | 0.0 | 0.00 | 0.02 | 0.00 | 97 | 1020.5 |
| 20260905144535 | 51 | 135 | 0.0 | 0.0 | 0.00 | 0.02 | 0.00 | 97 | 1020.3 |
| 20260905143036 | 51 | 135 | 0.0 | 0.0 | 0.00 | 0.02 | 0.00 | 97 | 1020.3 |
| 20260905141538 | 51 | 135 | 0.0 | 0.0 | 0.00 | 0.02 | 0.00 | 97 | 1020.2 |
| 20260905140036 | 50 | 115 | 0.0 | 2.0 | 0.00 | 0.02 | 0.00 | 97 | 1020.0 |
| 20260905134536 | 50 | 112 | 0.0 | 0.0 | 0.00 | 0.02 | 0.00 | 97 | 1019.8 |
| 20260905133038 | 50 | 112 | 0.0 | 0.0 | 0.00 | 0.02 | 0.00 | 97 | 1019.7 |
| 20260905131538 | 51 | 112 | 0.0 | 0.0 | 0.00 | 0.02 | 0.00 | 96 | 1019.6 |
| 20260905130036 | 51 | 112 | 0.0 | 0.0 | 0.00 | 0.03 | 0.00 | 96 | 1019.6 |
| 20260905124538 | 51 | 112 | 0.0 | 0.0 | 0.00 | 0.03 | 0.00 | 96 | 1019.7 |
| 20260905123039 | 51 | 112 | 0.0 | 0.0 | 0.00 | 0.03 | 0.00 | 96 | 1019.7 |
| 20260905121537 | 51 | 112 | 0.0 | 0.0 | 0.00 | 0.03 | 0.00 | 96 | 1019.7 |
| 20260905120038 | 51 | 112 | 0.0 | 0.0 | 0.00 | 0.03 | 0.00 | 96 | 1019.6 |
| 20260905113035 | 51 | 112 | 0.0 | 0.0 | 0.00 | 0.03 | 0.00 | 96 | 1019.5 |
| 20260905110050 | 51 | 112 | 0.0 | 0.0 | 0.00 | 0.03 | 0.00 | 96 | 1019.4 |
| 20260905103033 | 52 | 112 | 0.0 | 0.0 | 0.00 | 0.03 | 0.00 | 96 | 1019.3 |